time_stamp(utc),avg(mph),gust(mph),direction(deg),12m_air_temp(f),sonic_u(cm/s),sonic_v(cm/s),sonic_w(cm/s),pressure,2m_air_temp(f),pyranometer(W/m^2)
"2018-06-30 00:02:07+00",2.6,3.6,,83.1,-63,88,0,1014.8,78.5,0
"2018-06-30 00:07:07+00",2.8,3.8,,83.6,-45,106,9,1014.81,78.9,0
"2018-06-30 00:12:07+00",4.0,4.0,,84,-70,156,8,1014.83,79.4,0
"2018-06-30 00:17:07+00",3.8,3.8,,84.1,-76,147,8,1014.78,79.9,0
"2018-06-30 00:22:07+00",4.2,5.2,,84.1,-103,150,9,1014.91,80.1,0
"2018-06-30 00:27:07+00",4.0,4.0,,84.2,-110,137,14,1014.98,80.1,0
"2018-06-30 00:32:07+00",4.4,4.4,,84.1,-109,153,15,1014.89,80,0
"2018-06-30 00:37:07+00",4.8,4.8,,83.9,-117,174,18,1014.92,79.7,0
"2018-06-30 00:42:07+00",4.4,4.4,,84.1,-94,171,16,1014.94,79.5,0
"2018-06-30 00:47:07+00",4.1,4.1,,84.2,-76,160,7,1014.93,79.1,0
"2018-06-30 00:52:07+00",4.1,4.1,,84.4,-71,164,7,1014.93,78.9,0
"2018-06-30 00:57:07+00",3.4,3.4,,84.5,-39,139,4,1014.91,78.8,0
"2018-06-30 01:02:07+00",2.5,2.5,,84.6,-37,98,3,1014.85,79.1,0
"2018-06-30 01:07:07+00",2.4,2.4,,84.5,-50,89,5,1014.87,79.3,0
"2018-06-30 01:12:07+00",3.3,4.3,,83.2,-135,1,5,1014.95,79.1,0
"2018-06-30 01:17:07+00",3.8,3.8,,81.8,-153,-32,2,1015.04,78.3,0
"2018-06-30 01:22:07+00",3.1,3.1,,81.8,-130,-9,3,1015.09,77.6,0
"2018-06-30 01:27:07+00",3.3,4.3,,81.9,-130,-39,6,1015.02,77.3,0
"2018-06-30 01:32:07+00",5.4,6.4,,81.7,-233,-32,13,1015.16,76.9,0
"2018-06-30 01:37:07+00",6.5,7.5,,80.8,-288,39,15,1015.23,76.7,0
"2018-06-30 01:42:07+00",7.0,7.0,,81.4,-310,22,12,1015.31,76.5,0
"2018-06-30 01:47:07+00",6.1,6.1,,81.9,-271,30,3,1015.29,76.3,0
"2018-06-30 01:52:07+00",6.9,6.9,,81.8,-306,42,15,1015.22,76.2,0
"2018-06-30 01:57:07+00",7.2,7.2,,81.7,-319,62,17,1015.24,76,0
"2018-06-30 02:02:07+00",7.5,7.5,,81.4,-332,65,16,1015.25,76,0
"2018-06-30 02:07:07+00",7.7,7.7,,81.4,-337,74,15,1015.39,76.1,0
"2018-06-30 02:12:07+00",8.0,8.0,,81.6,-350,72,17,1015.34,76,0
"2018-06-30 02:17:07+00",8.1,8.1,,81.2,-351,96,16,1015.32,75.9,0
"2018-06-30 02:22:07+00",7.6,7.6,,80.6,-324,103,12,1015.38,75.8,0
"2018-06-30 02:27:07+00",7.2,7.2,,80.6,-298,120,13,1015.36,75.7,0
"2018-06-30 02:32:07+00",6.9,7.9,,79.6,-277,130,8,1015.5,75.7,0
"2018-06-30 02:37:07+00",7.9,8.9,,79.1,-311,169,15,1015.59,75.8,0
"2018-06-30 02:42:07+00",8.1,9.1,,78.7,-292,212,14,1015.6,75.9,0
"2018-06-30 02:47:07+00",8.5,9.5,,78.8,-315,211,14,1015.69,75.8,0
"2018-06-30 02:52:07+00",7.7,7.7,,78.7,-275,209,16,1015.82,75.8,0
"2018-06-30 02:57:07+00",7.2,7.2,,78.8,-251,201,17,1015.96,76,0
"2018-06-30 03:02:07+00",5.9,6.9,,78.2,-217,151,13,1015.99,76,0
"2018-06-30 03:07:07+00",5.9,5.9,,77.8,-239,116,15,1015.98,76,0
"2018-06-30 03:12:07+00",5.7,5.7,,77.8,-211,144,16,1016.03,75.7,0
"2018-06-30 03:17:07+00",6.9,7.9,,77.6,-275,140,16,1016.03,75.4,0
"2018-06-30 03:22:07+00",7.6,7.6,,77.9,-306,146,18,1015.95,75.1,0
"2018-06-30 03:27:07+00",7.6,7.6,,78.2,-304,153,18,1015.92,75,0
"2018-06-30 03:32:07+00",8.3,9.3,,78.3,-332,162,15,1015.82,75,0
"2018-06-30 03:37:07+00",8.6,8.6,,78.1,-337,185,16,1015.84,75,0
"2018-06-30 03:42:07+00",9.5,10.5,,77.7,-363,213,18,1015.97,75,0
"2018-06-30 03:47:07+00",8.4,9.4,,77.5,-319,205,18,1016.06,75,0
"2018-06-30 03:52:07+00",8.9,8.9,,77.6,-342,210,18,1016,75,0
"2018-06-30 03:57:07+00",8.8,9.8,,77,-324,219,20,1016.13,74.9,0
"2018-06-30 04:02:07+00",9.0,9.0,,76.5,-319,228,18,1016.16,74.8,0
"2018-06-30 04:07:07+00",9.5,10.5,,76.4,-354,240,22,1016.12,74.6,0
"2018-06-30 04:12:07+00",9.8,9.8,,76.6,-365,250,22,1016.14,74.5,0
"2018-06-30 04:17:07+00",8.3,9.3,,76.5,-303,207,16,1016.19,74.6,0
"2018-06-30 04:22:07+00",8.6,9.6,,76.1,-332,196,17,1016.23,74.5,0
"2018-06-30 04:27:07+00",9.2,10.2,,76.2,-373,184,18,1016.17,74.4,0
"2018-06-30 04:32:07+00",8.2,8.2,,76.3,-330,167,20,1016.19,74.3,0
"2018-06-30 04:37:07+00",8.0,8.0,,76.4,-333,138,18,1016.15,74.2,0
"2018-06-30 04:42:07+00",7.6,7.6,,76.5,-315,130,16,1016.18,74.1,0
"2018-06-30 04:47:07+00",9.1,9.1,,76.7,-366,190,23,1016.23,74,0
"2018-06-30 04:52:07+00",9.5,9.5,,76.8,-384,190,24,1016.18,74,0
"2018-06-30 04:57:07+00",8.0,8.0,,76.5,-337,133,19,1016.16,74,0
"2018-06-30 05:02:07+00",6.9,7.9,,76,-298,78,15,1016.13,73.9,0
"2018-06-30 05:07:07+00",6.4,7.4,,75.6,-284,16,7,1016.04,73.7,0
"2018-06-30 05:12:07+00",7.5,7.5,,75.8,-333,39,15,1016.08,73.5,0
"2018-06-30 05:17:07+00",8.1,9.1,,76.3,-343,135,19,1016.03,73.4,0
"2018-06-30 05:22:07+00",7.4,8.4,,75.8,-315,123,20,1016.09,73.3,0
"2018-06-30 05:27:07+00",8.5,8.5,,75.8,-354,159,22,1016.28,73.2,0
"2018-06-30 05:32:07+00",7.0,7.0,,75.7,-283,131,15,1016.11,73.3,0
"2018-06-30 05:37:07+00",5.8,5.8,,75.4,-240,99,12,1016.09,73.2,0
"2018-06-30 05:42:07+00",5.8,5.8,,75.3,-247,79,10,1016.17,73.1,0
"2018-06-30 05:47:07+00",6.2,6.2,,75.4,-270,45,12,1016.14,72.9,0
"2018-06-30 05:52:07+00",7.4,8.4,,75.8,-314,124,18,1016.04,72.7,0
"2018-06-30 05:57:07+00",7.6,7.6,,76,-294,177,21,1016.06,72.6,0
"2018-06-30 06:02:07+00",7.7,7.7,,76,-296,187,22,1016.11,72.8,0
"2018-06-30 06:07:07+00",8.6,9.6,,75.7,-339,191,23,1016.02,72.9,0
"2018-06-30 06:12:07+00",7.2,8.2,,75.4,-273,165,15,1016.07,72.9,0
"2018-06-30 06:17:07+00",6.0,7.0,,75.1,-238,117,14,1016.05,73,0
"2018-06-30 06:22:07+00",6.8,7.8,,74.9,-291,104,18,1016.12,73,0
"2018-06-30 06:27:07+00",6.9,7.9,,75,-251,178,14,1016.07,73,0
"2018-06-30 06:32:07+00",8.0,8.0,,74.9,-278,217,19,1016.05,73,0
"2018-06-30 06:37:07+00",8.4,8.4,,75,-306,222,19,1016.01,73.1,0
"2018-06-30 06:42:07+00",7.1,8.1,,74.7,-267,171,14,1016.01,73.1,0
"2018-06-30 06:47:07+00",7.7,7.7,,74.7,-295,172,18,1016.04,73,0
"2018-06-30 06:52:07+00",8.1,8.1,,74.9,-291,206,15,1016.07,73,0
"2018-06-30 06:57:07+00",8.3,9.3,,74.9,-292,216,23,1016.04,73.1,0
"2018-06-30 07:02:07+00",7.6,8.6,,74.7,-278,186,18,1016.1,73.1,0
"2018-06-30 07:07:07+00",7.9,8.9,,74.7,-283,209,19,1015.99,73.1,0
"2018-06-30 07:12:07+00",9.5,10.5,,74.6,-335,260,25,1015.93,73.1,0
"2018-06-30 07:17:07+00",7.4,8.4,,74.6,-251,207,23,1016,73.1,0
"2018-06-30 07:22:07+00",8.0,9.0,,74.4,-277,223,20,1016.11,73,0
"2018-06-30 07:27:07+00",9.4,10.4,,74.4,-318,263,25,1016.16,73,0
"2018-06-30 07:32:07+00",8.9,8.9,,74.3,-324,230,21,1016.2,73,0
"2018-06-30 07:37:07+00",6.8,7.8,,74.1,-229,197,18,1016.18,73,0
"2018-06-30 07:42:07+00",7.5,8.5,,74.3,-269,192,23,1016.11,72.9,0
"2018-06-30 07:47:07+00",8.1,9.1,,74.4,-318,180,25,1016.07,72.7,0
"2018-06-30 07:52:07+00",7.5,7.5,,74.2,-284,179,18,1015.99,72.5,0
"2018-06-30 07:57:07+00",7.9,8.9,,74.1,-305,184,22,1016.07,72.4,0
"2018-06-30 08:02:07+00",6.9,7.9,,74.1,-270,144,16,1016.18,72.3,0
"2018-06-30 08:07:07+00",7.5,8.5,,74.1,-296,164,18,1016.28,72.3,0
"2018-06-30 08:12:07+00",8.7,8.7,,74.3,-320,229,23,1016.4,72.2,0
"2018-06-30 08:17:07+00",7.8,8.8,,74.2,-274,216,17,1016.41,72.4,0
"2018-06-30 08:22:07+00",8.7,9.7,,74,-305,246,24,1016.53,72.5,0
"2018-06-30 08:27:07+00",8.0,8.0,,74,-257,242,25,1016.58,72.5,0
"2018-06-30 08:32:07+00",8.3,9.3,,74,-259,266,16,1016.69,72.6,0
"2018-06-30 08:37:07+00",8.0,9.0,,74,-262,243,22,1016.62,72.6,0
"2018-06-30 08:42:07+00",7.2,8.2,,73.8,-246,206,25,1016.61,72.5,0
"2018-06-30 08:47:07+00",7.1,8.1,,73.7,-253,198,23,1016.69,72.4,0
"2018-06-30 08:52:07+00",7.5,7.5,,73.6,-258,210,29,1016.68,72.3,0
"2018-06-30 08:57:07+00",6.4,7.4,,73.7,-233,169,24,1016.76,72.2,0
"2018-06-30 09:02:07+00",7.7,8.7,,73.7,-289,198,19,1016.72,72.2,0
"2018-06-30 09:07:07+00",7.8,8.8,,73.9,-283,205,21,1016.61,72.1,0
"2018-06-30 09:12:07+00",7.7,8.7,,73.8,-252,216,25,1016.67,72.1,0
"2018-06-30 09:17:07+00",7.7,8.7,,73.9,-248,241,24,1016.54,72.2,0
"2018-06-30 09:22:07+00",7.1,7.1,,73.8,-216,231,21,1016.5,72.2,0
"2018-06-30 09:27:07+00",6.7,6.7,,73.8,-217,201,20,1016.35,72.2,0
"2018-06-30 09:32:07+00",5.4,6.4,,73.7,-210,123,16,1016.38,72.1,0
"2018-06-30 09:37:07+00",6.2,6.2,,73.6,-243,127,16,1016.43,72,0
"2018-06-30 09:42:07+00",6.3,6.3,,73.6,-236,152,17,1016.47,71.8,0
"2018-06-30 09:47:07+00",6.2,7.2,,73.5,-194,196,20,1016.54,71.7,0
"2018-06-30 09:52:07+00",7.0,8.0,,73.4,-216,221,20,1016.55,71.7,0
"2018-06-30 09:57:07+00",7.2,7.2,,73.3,-207,232,21,1016.62,71.8,0
"2018-06-30 10:02:07+00",7.1,7.1,,73.3,-211,226,18,1016.69,71.8,0
"2018-06-30 10:07:07+00",7.1,8.1,,73.3,-222,222,21,1016.7,71.9,0
"2018-06-30 10:12:07+00",6.4,7.4,,73.2,-218,178,23,1016.73,72,0
"2018-06-30 10:17:07+00",6.6,6.6,,73.1,-231,181,21,1016.65,72.1,0.1
"2018-06-30 10:22:07+00",6.2,7.2,,72.9,-228,162,20,1016.7,72.1,1.4
"2018-06-30 10:27:07+00",6.0,7.0,,72.8,-236,136,21,1016.73,72.2,12.8
"2018-06-30 10:32:07+00",6.3,7.3,,72.8,-243,136,13,1016.86,72.4,22.7
"2018-06-30 10:37:07+00",6.3,8.3,,73.1,-247,130,16,1016.95,72.8,28
"2018-06-30 10:42:07+00",8.0,9.0,,73.3,-311,185,15,1017,73.2,34.1
"2018-06-30 10:47:07+00",7.8,9.8,,73.5,-283,194,25,1017.14,73.6,35.1
"2018-06-30 10:52:07+00",7.8,8.8,,73.5,-297,187,20,1017.14,74,48.1
"2018-06-30 10:57:07+00",6.7,7.7,,73.4,-257,163,18,1017.12,74.3,58.8
"2018-06-30 11:02:07+00",5.5,6.5,,73.6,-225,122,25,1017.14,74.7,70.3
"2018-06-30 11:07:07+00",6.9,7.9,,73.7,-255,172,12,1017.19,75.1,72.2
"2018-06-30 11:12:07+00",5.8,6.8,,73.8,-203,160,31,1017.31,75.3,92.5
"2018-06-30 11:17:07+00",5.9,6.9,,73.8,-186,183,23,1017.43,75.3,81
"2018-06-30 11:22:07+00",6.0,7.0,,73.9,-188,192,21,1017.49,75.3,100.6
"2018-06-30 11:27:07+00",6.5,7.5,,74.1,-203,207,16,1017.38,75.6,124.7
"2018-06-30 11:32:07+00",5.3,6.3,,74.5,-132,178,27,1017.47,76,138.3
"2018-06-30 11:37:07+00",5.3,6.3,,75.2,-130,191,11,1017.51,76.7,148
"2018-06-30 11:42:07+00",4.1,5.1,,75.9,-146,129,16,1017.48,77.5,156.6
"2018-06-30 11:47:07+00",3.7,4.7,,76.4,-120,119,26,1017.54,78.3,165
"2018-06-30 11:52:07+00",4.6,5.6,,77.3,-120,167,13,1017.59,79.2,171.4
"2018-06-30 11:57:07+00",2.9,3.9,,77.8,-105,85,20,1017.6,80,175.8
"2018-06-30 12:02:07+00",2.6,3.6,,78.1,-84,74,20,1017.69,81.1,183.9
"2018-06-30 12:07:07+00",4.3,5.3,,79.2,-48,176,31,1017.66,82.3,195
"2018-06-30 12:12:07+00",6.1,7.1,,80.1,-45,247,15,1017.55,83.3,204.9
"2018-06-30 12:17:07+00",5.7,6.7,,80.5,-26,246,12,1017.7,83.9,213.1
"2018-06-30 12:22:07+00",7.0,8.0,,80.6,-37,306,9,1017.74,84.2,220.1
"2018-06-30 12:27:07+00",6.6,7.6,,80.7,-69,290,13,1017.86,84.2,227
"2018-06-30 12:32:07+00",6.8,7.8,,80.8,40,286,10,1018.03,84.2,231.9
"2018-06-30 12:37:07+00",8.3,10.3,,80.7,71,345,-2,1018.07,83.9,239.6
"2018-06-30 12:42:07+00",7.2,9.2,,80.6,-13,309,26,1018.19,83.7,246.6
"2018-06-30 12:47:07+00",5.5,6.5,,81,103,202,10,1018.12,84.1,243
"2018-06-30 12:52:07+00",6.2,7.2,,80.9,54,258,-2,1018.16,84.2,246.6
"2018-06-30 12:57:07+00",4.6,6.6,,81.2,81,160,20,1018.11,84.6,246
"2018-06-30 13:02:07+00",4.2,5.2,,81.6,14,179,14,1018.12,85,268.8
"2018-06-30 13:07:07+00",3.6,4.6,,82.3,64,121,22,1018.14,85.5,280.7
"2018-06-30 13:12:07+00",4.5,6.5,,82.7,99,152,13,1018.12,85.9,262.3
"2018-06-30 13:17:07+00",5.2,6.2,,82.7,118,187,-9,1017.99,86,286.4
"2018-06-30 13:22:07+00",4.1,5.1,,83,95,120,36,1018.02,86.4,301.8
"2018-06-30 13:27:07+00",4.9,6.9,,83.2,46,189,6,1018.14,86.9,315.9
"2018-06-30 13:32:07+00",4.2,5.2,,83.3,10,154,29,1018.08,87.1,324.8
"2018-06-30 13:37:07+00",5.3,6.3,,83.2,12,227,-9,1018.2,87,334
"2018-06-30 13:42:07+00",6.1,7.1,,83.1,-2,257,17,1018.15,87.3,340
"2018-06-30 13:47:07+00",3.0,4.0,,83.2,17,99,31,1018.11,87.7,351.1
"2018-06-30 13:52:07+00",3.2,4.2,,83.2,113,77,-3,1017.97,87.2,349.2
"2018-06-30 13:57:07+00",3.6,4.6,,83.5,34,138,-13,1018.07,87.5,372.1
"2018-06-30 14:02:07+00",3.0,4.0,,83.9,92,70,21,1018.1,88,373.4
"2018-06-30 14:07:07+00",2.4,3.4,,84.2,97,29,-2,1018.16,88.5,383.1
"2018-06-30 14:12:07+00",4.4,5.4,,84.2,183,64,-17,1018.19,88.7,384.3
"2018-06-30 14:17:07+00",2.4,3.4,,84.8,74,52,24,1018.23,89,401.3
"2018-06-30 14:22:07+00",3.4,4.4,,84.5,69,123,-26,1018.23,88.9,405.4
"2018-06-30 14:27:07+00",3.4,3.4,,84.6,142,35,2,1018.19,88.8,414.8
"2018-06-30 14:32:07+00",2.7,3.7,,84.7,89,51,24,1018.29,88.9,424
"2018-06-30 14:37:07+00",2.5,3.5,,84.7,101,6,1,1018.19,89.2,423.5
"2018-06-30 14:42:07+00",4.3,5.3,,84.8,163,58,15,1018.18,89.5,433.2
"2018-06-30 14:47:07+00",4.3,6.3,,84.5,163,23,34,1018.18,89.8,436.3
"2018-06-30 14:52:07+00",7.9,8.9,,84,335,-103,-23,1017.98,88.5,435.5
"2018-06-30 14:57:07+00",4.1,5.1,,83.9,145,-112,-8,1017.87,87.8,435.9
"2018-06-30 15:02:07+00",6.5,8.5,,83.9,254,-127,15,1017.72,87.6,441.5
"2018-06-30 15:07:07+00",7.8,9.8,,83.6,272,-211,-1,1017.58,87,440.5
"2018-06-30 15:12:07+00",8.2,9.2,,83.2,282,-223,20,1017.49,86.5,446.5
"2018-06-30 15:17:07+00",8.2,10.2,,83,337,-127,-6,1017.45,86.4,451.8
"2018-06-30 15:22:07+00",8.3,9.3,,82.8,328,-164,-12,1017.72,86.2,456.9
"2018-06-30 15:27:07+00",8.1,9.1,,82.4,329,-157,20,1017.83,85.9,457.5
"2018-06-30 15:32:07+00",7.1,8.1,,82.4,269,-159,25,1017.88,86.1,462.5
"2018-06-30 15:37:07+00",7.9,8.9,,82.5,329,-124,1,1017.86,86.1,469.8
"2018-06-30 15:42:07+00",6.7,7.7,,82.8,271,-142,31,1017.89,86.4,470.5
"2018-06-30 15:47:07+00",9.1,10.1,,82.7,315,-260,4,1017.61,86.5,475.6
"2018-06-30 15:52:07+00",10.3,12.3,,82.3,368,-271,4,1017.35,85.7,477
"2018-06-30 15:57:07+00",10.0,11.0,,82.2,283,-331,-7,1017.31,85.3,480.9
"2018-06-30 16:02:07+00",9.4,10.4,,82.3,283,-303,12,1017.54,85.3,482.2
"2018-06-30 16:07:07+00",7.9,8.9,,82,250,-236,19,1017.61,85.2,486
"2018-06-30 16:12:07+00",10.1,12.1,,82.2,221,-383,-17,1017.43,85.2,490.5
"2018-06-30 16:17:07+00",9.5,10.5,,82.2,224,-345,16,1017.32,85,495.8
"2018-06-30 16:22:07+00",8.5,9.5,,82.2,220,-293,-27,1017.61,84.8,492.5
"2018-06-30 16:27:07+00",8.4,10.4,,82.3,231,-281,7,1017.55,85,503.6
"2018-06-30 16:32:07+00",9.6,10.6,,82.1,269,-318,-3,1017.53,84.8,498
"2018-06-30 16:37:07+00",8.0,9.0,,82.1,219,-266,-15,1017.61,84.8,510
"2018-06-30 16:42:07+00",10.6,12.6,,82.3,295,-352,-3,1017.4,85.1,514.2
"2018-06-30 16:47:07+00",8.4,9.4,,82.1,309,-202,33,1017.66,85.2,518.9
"2018-06-30 16:52:07+00",8.4,9.4,,82,310,-214,29,1017.62,85.7,510.8
"2018-06-30 16:57:07+00",9.1,11.1,,82.2,294,-265,19,1017.6,86,506.7
"2018-06-30 17:02:07+00",9.6,11.6,,82.1,231,-357,-4,1017.65,85.5,524.3
"2018-06-30 17:07:07+00",9.5,11.5,,82.2,111,-385,0,1017.56,85.1,528.8
"2018-06-30 17:12:07+00",9.1,11.1,,81.7,57,-380,0,1017.58,84.4,532.5
"2018-06-30 17:17:07+00",10.1,11.1,,80.9,161,-402,-32,1017.69,83.7,518.6
"2018-06-30 17:22:07+00",10.4,11.4,,81.5,217,-393,-29,1017.61,84,535.9
"2018-06-30 17:27:07+00",8.5,9.5,,82.4,139,-329,-4,1017.62,84.7,540.2
"2018-06-30 17:32:07+00",8.6,10.6,,82.7,123,-340,-1,1017.68,85.1,532.5
"2018-06-30 17:37:07+00",10.3,11.3,,82.7,116,-425,-31,1017.61,85.1,546.9
"2018-06-30 17:42:07+00",8.7,10.7,,82.4,66,-373,-7,1017.6,84.8,539.2
"2018-06-30 17:47:07+00",10.3,11.3,,82.6,102,-434,-30,1017.71,85,541.3
"2018-06-30 17:52:07+00",9.5,10.5,,82.8,56,-403,-27,1017.83,85.3,542.1
"2018-06-30 17:57:07+00",7.6,8.6,,83.1,72,-302,1,1017.78,85.3,539.4
"2018-06-30 18:02:07+00",8.1,10.1,,83.9,64,-340,13,1017.61,86.1,539.4
"2018-06-30 18:07:07+00",10.6,11.6,,83.5,124,-441,-26,1017.58,86.1,540
"2018-06-30 18:12:07+00",10.3,11.3,,83.7,116,-428,-25,1017.53,86.2,537.8
"2018-06-30 18:17:07+00",9.2,11.2,,83.7,92,-376,-22,1017.56,86,529.6
"2018-06-30 18:22:07+00",9.9,10.9,,83.5,117,-403,-9,1017.57,85.7,526.3
"2018-06-30 18:27:07+00",9.8,10.8,,83.4,184,-387,-16,1017.58,85.8,521.8
"2018-06-30 18:32:07+00",8.9,9.9,,83.9,113,-361,-13,1017.71,86.2,536.6
"2018-06-30 18:37:07+00",10.5,12.5,,84,168,-422,-18,1017.66,86.3,532.1
"2018-06-30 18:42:07+00",9.5,10.5,,83.6,154,-374,10,1017.79,86.1,525.7
"2018-06-30 18:47:07+00",9.5,10.5,,83.7,234,-344,5,1017.65,86.4,522.8
"2018-06-30 18:52:07+00",9.1,10.1,,83.8,137,-357,19,1017.64,86.6,517.4
"2018-06-30 18:57:07+00",11.0,12.0,,83.4,190,-438,-10,1017.65,86.2,513.9
"2018-06-30 19:02:07+00",10.2,11.2,,82.6,145,-406,10,1017.65,85.4,508.1
"2018-06-30 19:07:07+00",9.4,11.4,,82.6,120,-384,-19,1017.59,85.3,503.8
"2018-06-30 19:12:07+00",11.5,13.5,,82.3,219,-452,-14,1017.61,85,498.3
"2018-06-30 19:17:07+00",10.6,12.6,,81.6,256,-377,3,1017.63,84.4,484.6
"2018-06-30 19:22:07+00",11.7,12.7,,81.5,98,-488,-38,1017.68,84.3,377.6
"2018-06-30 19:27:07+00",10.1,12.1,,80.9,88,-417,18,1017.75,83.4,466.7
"2018-06-30 19:32:07+00",13.8,15.8,,80.3,225,-550,-8,1017.56,83.2,439.2
"2018-06-30 19:37:07+00",12.1,14.1,,80.3,89,-503,-21,1017.68,82.6,371.4
"2018-06-30 19:42:07+00",11.1,13.1,,80.9,120,-456,-13,1017.51,82.8,430.5
"2018-06-30 19:47:07+00",11.7,14.7,,81.4,112,-468,1,1017.52,83.5,452.5
"2018-06-30 19:52:07+00",13.1,16.1,,81.2,76,-549,-33,1017.48,83.3,413.1
"2018-06-30 19:57:07+00",11.0,13.0,,81.1,97,-454,-13,1017.43,83.1,396.2
"2018-06-30 20:02:07+00",9.9,12.9,,81.3,102,-413,33,1017.43,83.4,421.4
"2018-06-30 20:07:07+00",10.9,13.9,,81.3,88,-469,0,1017.51,83.5,407
"2018-06-30 20:12:07+00",12.6,15.6,,81.2,104,-525,-25,1017.47,83.3,397.4
"2018-06-30 20:17:07+00",12.8,14.8,,81.3,130,-516,-6,1017.48,83.2,385.5
"2018-06-30 20:22:07+00",11.9,14.9,,81.4,57,-497,-4,1017.45,83.3,373.4
"2018-06-30 20:27:07+00",10.9,13.9,,81.6,52,-460,-15,1017.5,83.4,347.6
"2018-06-30 20:32:07+00",11.3,13.3,,81.7,99,-464,-21,1017.4,83.7,245.6
"2018-06-30 20:37:07+00",10.6,11.6,,81.6,98,-450,-24,1017.49,83.6,22.7
"2018-06-30 20:42:07+00",11.5,13.5,,81.2,95,-480,-24,1017.61,83.6,19.1
"2018-06-30 20:47:07+00",11.1,13.1,,80.5,123,-457,-31,1017.67,82.9,17
"2018-06-30 20:52:07+00",10.3,11.3,,80.5,136,-410,-3,1017.61,82.6,19.6
"2018-06-30 20:57:07+00",9.3,12.3,,80.8,95,-374,5,1017.57,82.8,19.5
"2018-06-30 21:02:07+00",11.6,12.6,,81.1,123,-484,-28,1017.51,83.1,147.5
"2018-06-30 21:07:07+00",10.9,13.9,,81.1,78,-442,1,1017.38,83.2,260.5
"2018-06-30 21:12:07+00",12.5,15.5,,81,65,-534,-25,1017.28,82.6,266.3
"2018-06-30 21:17:07+00",10.1,12.1,,81.2,46,-432,-8,1017.24,82.6,262.2
"2018-06-30 21:22:07+00",11.8,13.8,,80.6,98,-500,-13,1017.19,82.4,26.9
"2018-06-30 21:27:07+00",10.6,12.6,,80.3,100,-435,-11,1017.18,82.1,153.4
"2018-06-30 21:32:07+00",10.0,13.0,,80.4,93,-419,-15,1017.05,82.2,236.5
"2018-06-30 21:37:07+00",11.0,13.0,,80.2,78,-463,-5,1016.93,81.9,230.3
"2018-06-30 21:42:07+00",10.4,13.4,,80.5,63,-458,-16,1016.82,81.8,223.4
"2018-06-30 21:47:07+00",13.1,16.1,,80.2,78,-557,-25,1016.84,81.7,215.2
"2018-06-30 21:52:07+00",10.4,12.4,,80.1,43,-446,-12,1016.76,81.3,206.2
"2018-06-30 21:57:07+00",8.5,11.5,,80.1,2,-364,0,1016.76,81.2,199.3
"2018-06-30 22:02:07+00",11.1,14.1,,80.1,42,-478,-9,1016.7,81.2,189.9
"2018-06-30 22:07:07+00",13.8,15.8,,79.6,38,-595,-17,1016.71,80.8,180.8
"2018-06-30 22:12:07+00",9.6,12.6,,79.8,-8,-409,-18,1016.76,80.6,174.3
"2018-06-30 22:17:07+00",8.2,11.2,,80.5,-51,-344,-8,1016.66,81.2,165.2
"2018-06-30 22:22:07+00",13.9,15.9,,80.9,-162,-573,-12,1016.55,81.7,143.6
"2018-06-30 22:27:07+00",9.4,13.4,,81.3,-133,-380,12,1016.4,82.2,149.9
"2018-06-30 22:32:07+00",10.4,14.4,,81.6,-137,-421,7,1016.49,82.5,133.1
"2018-06-30 22:37:07+00",8.9,10.9,,81.8,-108,-368,11,1016.5,82.6,91.6
"2018-06-30 22:42:07+00",12.4,14.4,,81.9,-187,-496,-18,1016.41,82.6,96.5
"2018-06-30 22:47:07+00",8.8,10.8,,81.7,-110,-363,12,1016.46,82.4,63.9
"2018-06-30 22:52:07+00",11.6,14.6,,81.6,-193,-470,-6,1016.39,82.3,74.8
"2018-06-30 22:57:07+00",13.0,15.0,,81.5,-250,-507,-19,1016.5,82.1,80.7
"2018-06-30 23:02:07+00",10.5,12.5,,81.4,-233,-401,3,1016.63,82.1,57.7
"2018-06-30 23:07:07+00",13.2,16.2,,81.6,-288,-508,1,1016.57,82.1,82.3
"2018-06-30 23:12:07+00",14.7,16.7,,81.6,-347,-564,6,1016.59,82.3,77.2
"2018-06-30 23:17:07+00",13.9,15.9,,81.4,-297,-531,-10,1016.55,82.1,69.1
"2018-06-30 23:22:07+00",10.8,12.8,,81.3,-212,-421,1,1016.6,81.9,51.4
"2018-06-30 23:27:07+00",12.8,14.8,,81.1,-245,-500,-1,1016.59,81.7,45.6
"2018-06-30 23:32:07+00",12.2,14.2,,81,-261,-466,-10,1016.53,81.5,38.7
"2018-06-30 23:37:07+00",12.0,15.0,,80.9,-247,-465,4,1016.49,81.3,31.1
"2018-06-30 23:42:07+00",13.0,15.0,,80.8,-243,-503,-16,1016.52,81.1,22
"2018-06-30 23:47:07+00",10.8,12.8,,80.6,-209,-420,-12,1016.58,80.9,13.7
"2018-06-30 23:52:07+00",10.6,13.6,,80.3,-174,-423,-8,1016.57,80.6,5.5
"2018-06-30 23:57:07+00",9.8,11.8,,80.2,-175,-389,-2,1016.52,80.4,1.2
